DateTimeUTC,F1_A11,F1_S11,BsB_S11,BsG_S11,BsR_S11,BbsB_S11,BbsG_S11,BbsR_S11,BaB_A11,BaG_A11,BaR_A11,Tu_S11,T_S11,Uu_S11,U_S11,P_S11,T1_A11
2021-04-08T11:00:00Z,00000200,21000000,,,,,,,0000.43,0000.81,0000.59,16.1,23.4,,00.0,0658.9,30.9
2021-04-08T11:01:00Z,00000200,21000000,,,,,,,0000.44,0000.68,0000.02,16.1,23.4,,00.0,0658.8,30.9
2021-04-08T11:02:00Z,00000200,21000000,,,,,,,0000.67,-000.03,0000.26,16.1,23.4,,00.0,0658.8,30.9
2021-04-08T11:03:00Z,00000200,61000000,,,,,,,0001.61,0001.51,0001.26,16.1,23.4,,00.0,0658.8,30.9
2021-04-08T11:04:00Z,00000200,41000000,0002.08,0001.74,0001.16,0000.10,0000.41,0000.25,0001.07,0001.54,0000.80,16.3,23.3,00.0,00.0,0659.7,30.9
2021-04-08T11:05:00Z,00000200,01000000,0002.45,0001.43,0000.89,0000.09,0000.20,0000.33,0001.10,0000.69,0000.76,16.4,23.2,00.0,00.0,0659.8,30.9
2021-04-08T11:06:00Z,00000200,01000000,0002.35,0001.65,0001.02,0000.33,0000.35,0000.50,0001.20,0000.68,0000.29,16.4,23.2,00.0,00.0,0659.8,30.9
2021-04-08T11:07:00Z,00000200,01000000,0002.49,0001.39,0000.88,0000.18,0000.16,0000.37,0000.96,0001.31,0000.94,16.4,23.2,00.0,00.0,0659.8,30.9
2021-04-08T11:08:00Z,00000200,01000000,0002.21,0001.53,0000.75,0000.12,0000.41,0000.28,0001.36,0000.97,0001.07,16.4,23.2,00.1,00.0,0659.7,30.9
2021-04-08T11:09:00Z,00000200,01010000,0002.80,0001.63,0000.79,0000.30,0000.25,0000.32,0001.06,0000.92,0000.55,16.4,23.2,00.1,00.1,0659.7,30.9
2021-04-08T11:10:00Z,00000200,01000000,0003.00,0001.44,0000.80,-000.05,0000.07,0000.21,0001.30,0001.58,0000.71,16.4,23.2,00.2,00.1,0659.7,30.9
2021-04-08T11:11:00Z,00000200,01000000,0002.46,0001.59,0001.05,0000.23,-000.06,0000.32,0001.31,0000.66,0001.01,16.4,23.2,00.3,00.2,0659.7,30.9
2021-04-08T11:12:00Z,00000200,01000000,0001.89,0001.66,0000.90,0000.28,0000.44,0000.47,0000.86,0001.11,0000.68,16.3,23.1,00.3,00.2,0659.7,30.9
2021-04-08T11:13:00Z,00000200,01000000,0001.79,0001.52,0000.78,0000.26,0000.21,0000.18,0001.11,0000.67,0000.35,16.3,23.1,00.3,00.2,0659.7,30.9
2021-04-08T11:14:00Z,00000200,01000000,0002.34,0001.60,0001.12,0000.33,0000.29,0000.36,0000.98,0000.91,0000.93,16.3,23.1,00.4,00.2,0659.7,30.9
2021-04-08T11:15:00Z,00000200,01000000,0002.33,0001.55,0000.86,0000.33,0000.27,0000.35,0001.24,0001.55,0000.53,16.4,23.1,00.4,00.3,0659.7,30.9
2021-04-08T11:16:00Z,00000200,01000000,0002.43,0001.95,0000.79,0000.67,0000.15,0000.35,0001.16,0000.98,0000.57,16.4,23.1,00.5,00.4,0659.7,30.9
2021-04-08T11:17:00Z,00000200,01000000,0002.82,0001.61,0000.78,-000.04,0000.18,0000.31,0001.24,0000.81,0001.27,16.4,23.1,00.7,00.5,0659.7,30.9
2021-04-08T11:18:00Z,00000200,01000000,0002.67,0001.48,0001.06,-000.05,0000.16,0000.33,0001.11,0000.90,0000.53,16.4,23.1,00.6,00.4,0659.7,30.9
2021-04-08T11:19:00Z,00000200,01000000,0002.55,0001.62,0001.00,0000.12,0000.24,0000.15,0000.91,0001.41,0000.76,16.4,23.1,00.7,00.4,0659.7,30.9
2021-04-08T11:20:00Z,00000200,01000000,0002.85,0001.59,0000.92,-000.12,0000.31,0000.41,0000.86,-000.02,0000.35,16.4,23.1,00.9,00.6,0659.7,30.9
2021-04-08T11:21:00Z,00000200,01000000,0002.53,0001.54,0001.20,0000.40,0000.27,0000.49,0001.30,0001.70,0001.11,16.4,23.1,00.9,00.6,0659.7,30.9
2021-04-08T11:22:00Z,00000200,01000000,0002.15,0001.63,0001.07,-000.08,0000.32,0000.51,0001.31,0001.15,0000.68,16.4,23.1,01.0,00.7,0659.7,30.9
2021-04-08T11:23:00Z,00000200,01000000,0002.47,0001.63,0000.71,-000.11,0000.39,0000.60,0001.10,0001.19,0000.96,16.4,23.1,01.0,00.7,0659.7,30.9
2021-04-08T11:24:00Z,00000200,01000000,0002.40,0001.55,0000.89,0000.54,0000.11,0000.43,0001.38,0000.70,0000.50,16.4,23.1,01.0,00.7,0659.7,30.9
2021-04-08T11:25:00Z,00000200,01000000,0002.19,0001.55,0000.77,0000.34,0000.04,0000.22,0001.40,0001.31,0001.08,16.4,23.1,01.1,00.8,0659.7,30.9
2021-04-08T11:26:00Z,00000200,01000000,0002.38,0001.78,0000.99,0000.63,0000.19,0000.49,0000.95,0001.47,0000.83,16.4,23.1,01.3,00.9,0659.7,30.9
2021-04-08T11:27:00Z,00000200,01000000,0002.47,0001.62,0000.98,0000.30,0000.29,0000.46,0001.38,0000.97,0000.90,16.4,23.1,01.3,00.9,0659.7,30.9
2021-04-08T11:28:00Z,00000200,01000000,0002.44,0001.56,0000.74,0000.09,0000.25,0000.34,0001.22,0000.86,0000.73,16.4,23.0,01.4,00.9,0659.7,30.9
2021-04-08T11:29:00Z,00000200,01000000,0002.53,0001.84,0000.94,0000.62,0000.27,0000.39,0001.03,0000.91,0000.60,16.4,23.0,01.5,01.0,0659.7,30.9
2021-04-08T11:30:00Z,00000200,01000000,0002.17,0001.52,0001.01,0000.58,0000.44,0000.39,0000.69,0001.19,0000.80,16.4,23.0,01.5,01.0,0659.7,30.9
2021-04-08T11:31:00Z,00000200,01000000,0002.70,0001.54,0001.14,-000.05,0000.11,0000.30,0001.25,0000.78,0000.51,16.3,23.0,01.5,01.0,0659.7,30.9
2021-04-08T11:32:00Z,00000200,01000000,0002.66,0001.64,0000.90,0000.13,0000.11,0000.17,0000.66,0001.01,0000.62,16.3,23.0,01.4,01.0,0659.7,30.9
2021-04-08T11:33:00Z,00000200,01000000,0002.18,0001.56,0000.70,-000.05,0000.19,0000.74,0000.91,0000.71,0000.71,16.4,23.0,01.5,01.0,0659.8,30.9
2021-04-08T11:34:00Z,00000200,01000000,0002.38,0001.71,0000.69,-000.39,0000.29,0000.17,0000.88,0000.80,0000.50,16.4,23.0,01.5,01.0,0659.8,30.9
2021-04-08T11:35:00Z,00000200,01000000,0002.71,0001.67,0000.69,-000.10,0000.34,0000.28,0000.80,0000.16,0000.50,16.4,23.0,01.4,00.9,0659.8,30.9
2021-04-08T11:36:00Z,00000200,01000000,0002.40,0001.43,0000.94,0000.24,0000.27,0000.41,0000.47,0001.16,0000.44,16.4,23.1,01.4,00.9,0659.8,30.9
2021-04-08T11:37:00Z,00000200,01000000,0002.39,0001.74,0001.10,-000.21,0000.24,0000.32,0001.54,0000.72,0001.06,16.5,23.1,01.4,00.9,0659.8,30.9
2021-04-08T11:38:00Z,00000200,01000000,0002.20,0001.30,0001.30,0000.15,0000.32,0000.66,0000.30,0000.66,0000.04,16.5,23.1,01.4,00.9,0659.8,30.9
2021-04-08T11:39:00Z,00000200,01000000,0002.84,0001.62,0001.13,-000.08,0000.16,0000.35,0000.53,-000.31,0000.27,16.5,23.0,01.3,00.8,0659.8,30.9
2021-04-08T11:40:00Z,00000200,01000000,0003.14,0001.67,0001.17,-000.04,0000.16,0000.61,0000.22,0000.64,0000.55,16.5,23.1,01.2,00.8,0659.8,30.9
2021-04-08T11:41:00Z,00000200,01000000,0003.20,0001.63,0000.81,-000.57,0000.39,0000.46,0000.64,0000.99,0000.10,16.5,23.1,01.2,00.8,0659.8,30.9
2021-04-08T11:42:00Z,00000200,01000000,0002.84,0001.50,0001.35,-000.17,0000.39,0000.28,0000.88,0000.52,0000.62,16.5,23.1,01.1,00.7,0659.8,30.9
2021-04-08T11:43:00Z,00000200,01000000,0002.77,0001.61,0001.20,0000.01,0000.26,0000.42,0000.76,0000.96,0000.65,16.5,23.1,01.0,00.7,0659.8,30.9
2021-04-08T11:44:00Z,00000200,01000000,0002.89,0001.46,0000.97,0000.48,0000.32,0000.02,0001.05,0001.00,0000.89,16.5,23.1,01.1,00.7,0659.9,30.9
2021-04-08T11:45:00Z,00000200,01000000,0002.92,0001.52,0000.85,-000.34,0000.17,0000.40,0000.80,0000.53,0000.44,16.5,23.1,01.0,00.7,0659.8,30.9
2021-04-08T11:46:00Z,00000200,01000000,0002.17,0001.84,0000.97,0000.05,0000.55,0000.31,0000.83,0000.11,0000.56,16.5,23.1,01.0,00.7,0659.9,30.9
2021-04-08T11:47:00Z,00000200,01000000,0002.24,0001.76,0000.84,-000.01,0000.26,0000.24,0000.61,0001.19,0000.61,16.5,23.1,01.0,00.7,0659.9,30.9
2021-04-08T11:48:00Z,00000200,01000000,0002.06,0001.84,0001.06,0000.09,0000.26,0000.42,0001.05,0000.72,0000.76,16.5,23.1,01.0,00.7,0659.9,30.9
2021-04-08T11:49:00Z,00000200,01000000,0002.40,0001.81,0001.12,0000.16,0000.27,0000.31,0000.60,0000.99,0000.47,16.5,23.1,00.8,00.6,0659.9,30.9
2021-04-08T11:50:00Z,00000200,01000000,0002.42,0001.95,0000.70,0000.13,0000.30,0000.12,0000.92,0000.66,0000.41,16.6,23.1,00.8,00.5,0660.0,30.9
2021-04-08T11:51:00Z,00000200,01000000,0002.76,0001.75,0001.08,0000.17,0000.28,0000.35,0000.86,0000.84,0000.91,16.6,23.1,00.9,00.6,0660.0,30.9
2021-04-08T11:52:00Z,00000200,01000000,0003.00,0001.73,0000.89,-000.46,0000.15,0000.18,0000.25,0000.40,0000.15,16.5,23.1,00.9,00.6,0660.0,30.9
2021-04-08T11:53:00Z,00000200,01000000,0003.42,0001.64,0000.93,0000.02,0000.31,0000.60,0000.77,0000.19,0000.44,16.6,23.1,00.6,00.4,0660.0,30.9
2021-04-08T11:54:00Z,00000200,01000000,0002.95,0001.56,0000.89,0000.09,0000.10,0000.45,0001.07,0000.73,0000.20,16.6,23.1,00.5,00.3,0660.0,30.9
2021-04-08T11:55:00Z,00000200,01000000,0002.58,0001.56,0000.93,0000.34,0000.32,0000.30,0000.10,0001.18,0000.66,16.6,23.1,00.4,00.3,0660.1,30.9
2021-04-08T11:56:00Z,00000200,01000000,0002.84,0001.91,0000.94,0000.23,0000.32,0000.22,0000.92,0000.20,0000.45,16.6,23.1,00.4,00.3,0660.1,30.9
2021-04-08T11:57:00Z,00000200,41000000,,,,,,,-000.44,-000.75,-000.05,16.6,23.2,00.6,00.4,0660.1,30.9
2021-04-08T11:58:00Z,00000200,61000000,,,,,,,-000.09,0000.01,0000.19,16.5,23.3,00.0,00.0,0659.1,30.9
2021-04-08T11:59:00Z,00000200,21000000,,,,,,,-000.11,0000.31,-000.41,16.5,23.4,,00.0,0659.1,31.0
